Terminal Aerodrome Forecast
Issued by NWS Hastings, NE

Home | Current Version | Previous Version | Text Only | Print | Product List | Glossary On
Versions: 1 2 3 4 5 6 7 8 9 10 11 12 13 14 15
000
FTUS45 KGID 012320
TAFEAR
TAF
KEAR 012320Z 0200/0224 VRB06KT P6SM SCT100
     FM020600 19011KT P6SM VCTS SCT080CB
     FM021500 22011KT P6SM SCT150
     FM022200 VRB06KT P6SM VCTS SCT080CB SCT200
      AMD LTD TO CLD VIS AND WIND=

USA.gov is the U.S. government's official web portal to all federal, state and local government web resources and services.